EN

Hourly Weather Yuba City

Today, 27 October, Tuesday

Time Temperature Precipitation Wind Pressure Humidity
00:00 +12°C° 0 mm 3 mps 764 mmHg 9%
01:00 +12°C° 0 mm 3 mps 764 mmHg 9%
02:00 +11°C° 0 mm 3 mps 764 mmHg 10%
03:00 +11°C° 0 mm 3 mps 764 mmHg 11%
04:00 +10°C° 0 mm 2 mps 764 mmHg 12%
05:00 +10°C° 0 mm 2 mps 764 mmHg 14%
06:00 +10°C° 0 mm 2 mps 764 mmHg 16%
07:00 +10°C° 0 mm 2 mps 764 mmHg 18%
08:00 +14°C° 0 mm 2 mps 764 mmHg 16%
09:00 +19°C° 0 mm 1 mps 764 mmHg 15%
10:00 +22°C° 0 mm 1 mps 763 mmHg 14%
11:00 +25°C° 0 mm 1 mps 763 mmHg 13%
12:00 +27°C° 0 mm 2 mps 762 mmHg 13%
13:00 +29°C° 0 mm 2 mps 761 mmHg 12%
14:00 +29°C° 0 mm 2 mps 761 mmHg 13%
15:00 +29°C° 0 mm 2 mps 761 mmHg 13%
16:00 +29°C° 0 mm 3 mps 761 mmHg 13%
17:00 +25°C° 0 mm 3 mps 761 mmHg 15%
18:00 +20°C° 0 mm 3 mps 761 mmHg 17%
19:00 +17°C° 0 mm 3 mps 762 mmHg 19%
20:00 +16°C° 0 mm 2 mps 762 mmHg 21%
21:00 +15°C° 0 mm 2 mps 763 mmHg 22%
22:00 +14°C° 0 mm 2 mps 763 mmHg 24%
23:00 +13°C° 0 mm 2 mps 763 mmHg 25%

Tomorrow, 28 October, Wednesday

Time Temperature Precipitation Wind Pressure Humidity
00:00 +12°C° 0 mm 1 mps 763 mmHg 26%
01:00 +12°C° 0 mm 1 mps 763 mmHg 28%
02:00 +11°C° 0 mm 1 mps 763 mmHg 29%
03:00 +11°C° 0 mm 1 mps 763 mmHg 30%
04:00 +10°C° 0 mm 1 mps 763 mmHg 31%
05:00 +10°C° 0 mm 1 mps 763 mmHg 31%
06:00 +10°C° 0 mm 1 mps 763 mmHg 31%
07:00 +10°C° 0 mm 1 mps 763 mmHg 31%
08:00 +13°C° 0 mm 1 mps 763 mmHg 26%
09:00 +18°C° 0 mm 1 mps 763 mmHg 22%
10:00 +21°C° 0 mm 1 mps 763 mmHg 17%
11:00 +23°C° 0 mm 1 mps 762 mmHg 16%
12:00 +25°C° 0 mm 1 mps 761 mmHg 14%
13:00 +27°C° 0 mm 1 mps 761 mmHg 12%
14:00 +27°C° 0 mm 1 mps 761 mmHg 13%
15:00 +27°C° 0 mm 1 mps 760 mmHg 14%
16:00 +27°C° 0 mm 1 mps 760 mmHg 15%
17:00 +23°C° 0 mm 1 mps 761 mmHg 18%
18:00 +20°C° 0 mm 1 mps 761 mmHg 20%
19:00 +16°C° 0 mm 1 mps 762 mmHg 23%
20:00 +15°C° 0 mm 1 mps 762 mmHg 25%
21:00 +14°C° 0 mm 1 mps 762 mmHg 26%
22:00 +13°C° 0 mm 1 mps 763 mmHg 28%
23:00 +13°C° 0 mm 1 mps 763 mmHg 29%

Day after tomorrow, 29 October, Thursday

Time Temperature Precipitation Wind Pressure Humidity
00:00 +12°C° 0 mm 1 mps 762 mmHg 30%
01:00 +11°C° 0 mm 1 mps 762 mmHg 30%
02:00 +11°C° 0 mm 1 mps 762 mmHg 31%
03:00 +10°C° 0 mm 1 mps 762 mmHg 32%
04:00 +10°C° 0 mm 1 mps 762 mmHg 33%
05:00 +10°C° 0 mm 1 mps 762 mmHg 33%
06:00 +10°C° 0 mm 1 mps 763 mmHg 33%
07:00 +10°C° 0 mm 1 mps 763 mmHg 34%
08:00 +13°C° 0 mm 1 mps 762 mmHg 28%
09:00 +18°C° 0 mm 1 mps 762 mmHg 23%
10:00 +22°C° 0 mm 1 mps 762 mmHg 18%
11:00 +24°C° 0 mm 1 mps 761 mmHg 16%
12:00 +26°C° 0 mm 1 mps 760 mmHg 14%
13:00 +29°C° 0 mm 1 mps 760 mmHg 12%
14:00 +29°C° 0 mm 1 mps 759 mmHg 13%
15:00 +28°C° 0 mm 1 mps 759 mmHg 14%
16:00 +28°C° 0 mm 1 mps 759 mmHg 15%
17:00 +25°C° 0 mm 1 mps 759 mmHg 17%
18:00 +21°C° 0 mm 2 mps 760 mmHg 20%
19:00 +17°C° 0 mm 2 mps 760 mmHg 23%
20:00 +16°C° 0 mm 2 mps 761 mmHg 24%
21:00 +15°C° 0 mm 1 mps 761 mmHg 25%
22:00 +14°C° 0 mm 1 mps 761 mmHg 26%
23:00 +14°C° 0 mm 1 mps 761 mmHg 27%

30 October, Friday

Time Temperature Precipitation Wind Pressure Humidity
00:00 +13°C° 0 mm 1 mps 761 mmHg 28%
01:00 +12°C° 0 mm 1 mps 761 mmHg 29%
02:00 +12°C° 0 mm 1 mps 761 mmHg 29%
03:00 +11°C° 0 mm 1 mps 761 mmHg 30%
04:00 +11°C° 0 mm 1 mps 761 mmHg 31%
05:00 +10°C° 0 mm 1 mps 761 mmHg 31%
06:00 +10°C° 0 mm 1 mps 761 mmHg 32%
07:00 +10°C° 0 mm 1 mps 761 mmHg 32%
08:00 +14°C° 0 mm 1 mps 761 mmHg 27%
09:00 +18°C° 0 mm 1 mps 761 mmHg 22%
10:00 +22°C° 0 mm 1 mps 761 mmHg 17%
11:00 +24°C° 0 mm 1 mps 760 mmHg 15%
12:00 +27°C° 0 mm 1 mps 760 mmHg 14%
13:00 +29°C° 0 mm 1 mps 759 mmHg 12%
14:00 +28°C° 0 mm 1 mps 759 mmHg 13%
15:00 +28°C° 0 mm 1 mps 759 mmHg 14%
16:00 +28°C° 0 mm 1 mps 759 mmHg 15%
17:00 +25°C° 0 mm 1 mps 759 mmHg 17%
18:00 +21°C° 0 mm 1 mps 760 mmHg 20%
19:00 +18°C° 0 mm 1 mps 760 mmHg 23%
20:00 +16°C° 0 mm 1 mps 761 mmHg 24%
21:00 +15°C° 0 mm 1 mps 761 mmHg 25%
22:00 +14°C° 0 mm 1 mps 761 mmHg 26%
23:00 +13°C° 0 mm 1 mps 761 mmHg 27%

31 October, Saturday

Time Temperature Precipitation Wind Pressure Humidity
00:00 +13°C° 0 mm 1 mps 761 mmHg 28%
01:00 +12°C° 0 mm 1 mps 761 mmHg 28%
02:00 +12°C° 0 mm 1 mps 762 mmHg 29%
03:00 +11°C° 0 mm 1 mps 762 mmHg 30%
04:00 +11°C° 0 mm 1 mps 762 mmHg 30%
05:00 +11°C° 0 mm 1 mps 762 mmHg 31%
06:00 +11°C° 0 mm 1 mps 763 mmHg 31%
07:00 +10°C° 0 mm 1 mps 763 mmHg 32%
08:00 +14°C° 0 mm 1 mps 763 mmHg 27%
09:00 +19°C° 0 mm 1 mps 763 mmHg 22%
10:00 +21°C° 0 mm 2 mps 763 mmHg 17%
11:00 +25°C° 0 mm 1 mps 762 mmHg 15%
12:00 +27°C° 0 mm 1 mps 762 mmHg 14%
13:00 +29°C° 0 mm 1 mps 761 mmHg 12%
14:00 +29°C° 0 mm 1 mps 761 mmHg 13%
15:00 +29°C° 0 mm 1 mps 761 mmHg 14%
16:00 +27°C° 0 mm 0 mps 761 mmHg 15%
17:00 +25°C° 0 mm 1 mps 761 mmHg 18%
18:00 +22°C° 0 mm 1 mps 762 mmHg 20%
19:00 +19°C° 0 mm 1 mps 763 mmHg 23%
20:00 +18°C° 0 mm 1 mps 763 mmHg 24%
21:00 +16°C° 0 mm 1 mps 763 mmHg 25%
22:00 +15°C° 0 mm 1 mps 763 mmHg 27%
23:00 +14°C° 0 mm 1 mps 764 mmHg 27%

1 November, Sunday

Time Temperature Precipitation Wind Pressure Humidity
00:00 +13°C° 0 mm 1 mps 764 mmHg 28%
01:00 +13°C° 0 mm 1 mps 764 mmHg 28%
02:00 +12°C° 0 mm 1 mps 764 mmHg 28%
03:00 +12°C° 0 mm 1 mps 764 mmHg 29%
04:00 +12°C° 0 mm 1 mps 764 mmHg 29%
05:00 +11°C° 0 mm 1 mps 764 mmHg 29%
06:00 +11°C° 0 mm 1 mps 764 mmHg 30%
07:00 +11°C° 0 mm 1 mps 765 mmHg 30%
08:00 +15°C° 0 mm 1 mps 764 mmHg 25%
09:00 +18°C° 0 mm 2 mps 764 mmHg 20%
10:00 +23°C° 0 mm 2 mps 764 mmHg 15%
11:00 +25°C° 0 mm 2 mps 764 mmHg 14%
12:00 +28°C° 0 mm 1 mps 763 mmHg 12%
13:00 +30°C° 0 mm 1 mps 763 mmHg 10%
14:00 +30°C° 0 mm 1 mps 762 mmHg 11%
15:00 +29°C° 0 mm 1 mps 762 mmHg 12%
16:00 +27°C° 0 mm 0 mps 762 mmHg 13%
17:00 +26°C° 0 mm 1 mps 763 mmHg 15%
18:00 +23°C° 0 mm 1 mps 763 mmHg 17%
19:00 +19°C° 0 mm 1 mps 764 mmHg 19%
20:00 +18°C° 0 mm 1 mps 764 mmHg 20%
21:00 +16°C° 0 mm 1 mps 764 mmHg 20%
22:00 +15°C° 0 mm 1 mps 764 mmHg 21%
23:00 +14°C° 0 mm 1 mps 764 mmHg 22%
Show more

We Need Your Consent

Meteoprog and our Service Providers may store and access personal data such as cookies, device identifiers or other similar technologies on your device and process such data to personalise content and ads, as well as provide social media features and to analyse the traffic.

  • Store and/or access information on your device

    Cookies, device identifiers or other information can be stored or accessed on your device for the purposes indicated above.

  • Personalised ads and content, ad and content measurement, audience insights, and products development

    Ads and content can be personalised based on a profile. More data can be added to better personalise ads and content. Ad and content performance can be measured. Insights about the audience who saw the ads and content can be derived. Such data can be used to develop or improve user’s experience, systems and software.

By clicking ‘I Agree’ you will allow the use of indicated cookies, device identifiers, web beacons or other similar technologies. Your settings can be changed in the browser on your device.

For certain purposes, legitimate interests may be relied on, rather than consent. You can read more about this in our Privacy and Cookie Policy.